[TLELIST] Archives

 

[list_settings.list_name] Current TLEs

July 30th 2009 PST

HST 1 20580U 90037B 09208.21241285 +.00000264 +00000-0 +74649-5 0 04260 2 20580 028.4684 201.0699 0003246 349.8200 010.2333 15.00818011855877 ISS (ZARYA) 1 25544U 98067A 09210.45114583 -.00001421 00000-0 -53178-5 0 3110 2 25544 051.6407 089.8566 0006415 292.3152 066.8163 15.74176228612605 CXO 1 25867U 99040B 09208.79166667 -.00000280 +00000-0 +10000-3 0 03514 2 25867 065.6155 067.6246 7599199 275.7037 357.0050 00.37804842005167 ____________________________________________________________________ These 2-Line ...Continue Reading

[list_settings.list_name] Current TLEs

July 29th 2009 PST

HST 1 20580U 90037B 09208.21241285 +.00000264 +00000-0 +74649-5 0 04260 2 20580 028.4684 201.0699 0003246 349.8200 010.2333 15.00818011855877 ISS (ZARYA) 1 25544U 98067A 09210.15820020 .00009493 00000-0 69106-4 0 3085 2 25544 051.6396 091.3568 0005868 294.7497 203.0644 15.74126778612560 CXO 1 25867U 99040B 09208.79166667 -.00000280 +00000-0 +10000-3 0 03514 2 25867 065.6155 067.6246 7599199 275.7037 357.0050 00.37804842005167 ____________________________________________________________________ These 2-Line ...Continue Reading

[list_settings.list_name] Current TLEs

July 28th 2009 PST

HST 1 20580U 90037B 09206.08442539 +.00000309 +00000-0 +10919-4 0 04256 2 20580 028.4687 214.9614 0003231 327.9391 032.1003 15.00817983855551 ISS (ZARYA) 1 25544U 98067A 09209.20688262 .00009333 00000-0 68073-4 0 3028 2 25544 051.6402 096.2423 0005855 291.0713 212.1576 15.74106878612417 CXO 1 25867U 99040B 09208.79166667 -.00000280 +00000-0 +10000-3 0 03514 2 25867 065.6155 067.6246 7599199 275.7037 357.0050 00.37804842005167 ____________________________________________________________________ These 2-Line ...Continue Reading

[list_settings.list_name] Current TLEs

July 27th 2009 PST

HST 1 20580U 90037B 09206.08442539 +.00000309 +00000-0 +10919-4 0 04256 2 20580 028.4687 214.9614 0003231 327.9391 032.1003 15.00817983855551 ISS (ZARYA) 1 25544U 98067A 09208.18457925 .00010686 00000-0 77346-4 0 2951 2 25544 051.6399 101.4933 0005870 286.5670 179.6300 15.74091377612256 CXO 1 25867U 99040B 09206.16666667 -.00000157 +00000-0 +10000-3 0 03500 2 25867 065.5986 067.6926 7594293 275.7397 359.5768 00.37805783005159 ____________________________________________________________________ These 2-Line ...Continue Reading

[list_settings.list_name] Current TLEs

July 26th 2009 PST

HST 1 20580U 90037B 09204.22243739 +.00000269 +00000-0 +78335-5 0 04242 2 20580 028.4692 227.1089 0003219 305.6489 054.3894 15.00817186855274 ISS (ZARYA) 1 25544U 98067A 09205.96316008 +.00012778 +00000-0 +91795-4 0 02802 2 25544 051.6398 112.9000 0005869 278.3287 191.3943 15.74043552611905 CXO 1 25867U 99040B 09206.16666667 -.00000157 +00000-0 +10000-3 0 03500 2 25867 065.5986 067.6926 7594293 275.7397 359.5768 00.37805783005159 ____________________________________________________________________ These 2-Line ...Continue Reading

[list_settings.list_name] Current TLEs

July 25th 2009 PST

HST 1 20580U 90037B 09204.22243739 +.00000269 +00000-0 +78335-5 0 04242 2 20580 028.4692 227.1089 0003219 305.6489 054.3894 15.00817186855274 ISS (ZARYA) 1 25544U 98067A 09206.15415132 .00012883 00000-0 92493-4 0 2816 2 25544 051.6398 111.9194 0005860 278.7040 194.0156 15.74049189611931 CXO 1 25867U 99040B 09206.16666667 -.00000157 +00000-0 +10000-3 0 03500 2 25867 065.5986 067.6926 7594293 275.7397 359.5768 00.37805783005159 ____________________________________________________________________ These 2-Line ...Continue Reading

[list_settings.list_name] Current TLEs

July 24th 2009 PST

HST 1 20580U 90037B 09201.16345431 +.00000257 +00000-0 +68857-5 0 04238 2 20580 028.4701 247.0752 0003234 273.0910 086.9308 15.00816473854815 ISS (ZARYA) 1 25544U 98067A 09205.14585234 .00010694 00000-0 77653-4 0 2746 2 25544 051.6396 117.0965 0005889 274.8357 240.4588 15.74013940611774 CXO 1 25867U 99040B 09203.50000000 -.00000145 +00000-0 +10000-3 0 03493 2 25867 065.5898 067.8488 7588909 275.7334 356.4986 00.37805168005148 ____________________________________________________________________ These 2-Line ...Continue Reading

[list_settings.list_name] Current TLEs

July 23rd 2009 PST

HST 1 20580U 90037B 09201.16345431 +.00000257 +00000-0 +68857-5 0 04238 2 20580 028.4701 247.0752 0003234 273.0910 086.9308 15.00816473854815 ISS (ZARYA) 1 25544U 98067A 09203.52761574 .00006755 00000-0 50790-4 0 2666 2 25544 051.6391 125.4054 0005773 266.0886 073.4460 15.73964054611518 CXO 1 25867U 99040B 09203.50000000 -.00000145 +00000-0 +10000-3 0 03493 2 25867 065.5898 067.8488 7588909 275.7334 356.4986 00.37805168005148 ____________________________________________________________________ These 2-Line ...Continue Reading

[list_settings.list_name] Current TLEs

July 22nd 2009 PST

HST 1 20580U 90037B 09201.16345431 +.00000257 +00000-0 +68857-5 0 04238 2 20580 028.4701 247.0752 0003234 273.0910 086.9308 15.00816473854815 ISS (ZARYA) 1 25544U 98067A 09202.40633840 .00007418 00000-0 55376-4 0 2590 2 25544 051.6379 131.1664 0005978 262.3422 199.4777 15.73948023611346 CXO 1 25867U 99040B 09200.87500000 -.00000140 +00000-0 +10000-3 0 03489 2 25867 065.5891 067.9571 7579657 275.7735 359.0724 00.37793972005137 ____________________________________________________________________ These 2-Line ...Continue Reading

[list_settings.list_name] Current TLEs

July 21st 2009 PST

HST 1 20580U 90037B 09199.50096380 +.00000280 +00000-0 +86839-5 0 04223 2 20580 028.4703 257.9249 0003255 255.1526 104.8681 15.00816350854565 ISS (ZARYA) 1 25544U 98067A 09199.93400243 -.00022871 00000-0 -15385-3 0 2397 2 25544 051.6372 143.8601 0005946 250.9181 232.8317 15.73879816610951 CXO 1 25867U 99040B 09200.87500000 -.00000140 +00000-0 +10000-3 0 03489 2 25867 065.5891 067.9571 7579657 275.7735 359.0724 00.37793972005137 ____________________________________________________________________ These 2-Line ...Continue Reading
  • This mailing list is a public mailing list - anyone may join or leave, at any time.
  • This mailing list is announce-only.

International Space Station (ISS) / Hubble Space Telescope (HST) / Chandra X-Ray Observatory Orbital Data via EMAIL

Privacy Policy:

Private list